Perseids 2008: visual data quicklook

Introduction

This page shows automated results of the Perseids 2008, based on visual data entered through the IMO electronic report form. Send your feedback regarding this page to Geert Barentsen or visit the project pages. Note that these automated results may not be suitable for scientific use!

Immy Activity profile
Immy Observer statistics
Immy Data access

Page generated: 2009 June 6 at 0:54 UT.

Activity profile

ZHRmax = 116 based on 28527 Perseids in 3943 data intervals, assuming fixed population index r = 2.1 and zenith correction 1/sin(hR).

ZHR graph

Time (UT)SolarlonnINTnPERZHR
2008-07-25 00:07122.315103+-3
2008-07-25 23:37123.25123296+-1
2008-07-26 23:33124.204531248+-1
2008-07-27 07:49124.533125+-3
2008-07-27 23:37125.162711929+-1
2008-07-29 01:12126.1811083259+-0
2008-07-29 18:40126.8786159+-2
2008-07-30 00:43127.119782419+-1
2008-07-30 20:04127.889186510+-1
2008-07-31 01:40128.1139332510+-1
2008-07-31 23:57129.0016220111+-1
2008-08-01 09:20129.37542012+-3
2008-08-01 23:41129.9488838913+-1
2008-08-02 09:00130.3191316+-8
2008-08-03 00:25130.9354223613+-1
2008-08-03 17:36131.620206515+-2
2008-08-04 01:45131.9466836712+-1
2008-08-04 19:18132.646124112+-2
2008-08-05 00:41132.8617635216+-1
2008-08-05 23:29133.7716732716+-1
2008-08-06 22:01134.67011450216+-1
2008-08-07 01:11134.7978243117+-1
2008-08-07 22:03135.6308750417+-1
2008-08-08 03:20135.8423325519+-1
2008-08-08 23:26136.6459750323+-1
2008-08-09 07:34136.969139721+-2
2008-08-09 21:44137.5366850123+-1
2008-08-09 23:46137.6176150324+-1
2008-08-10 02:16137.7166644425+-1
2008-08-10 21:28138.4846150330+-1
2008-08-10 22:51138.5396750928+-1
2008-08-10 23:48138.5777458528+-1
2008-08-11 00:52138.6206768032+-1
2008-08-11 01:53138.6605551036+-2
2008-08-11 07:25138.8822923734+-2
2008-08-11 21:29139.4449450646+-2
2008-08-11 22:32139.48620388943+-1
2008-08-11 23:30139.525233112048+-1
2008-08-12 00:25139.561153102849+-2
2008-08-12 01:31139.606111108668+-2
2008-08-12 02:36139.6498051768+-3
2008-08-12 04:35139.7289950271+-3
2008-08-12 07:32139.8465850268+-3
2008-08-12 09:17139.9165450378+-3
2008-08-12 17:05140.2285950654+-2
2008-08-12 22:41140.4526150367+-3
2008-08-12 23:37140.489167164677+-2
2008-08-13 00:34140.527218276490+-2
2008-08-13 01:33140.5662243608113+-2
2008-08-13 02:23140.600811024116+-4
2008-08-13 05:20140.7184550073+-3
2008-08-13 11:19140.9572019841+-3
2008-08-13 23:47141.4555751033+-1
2008-08-14 02:01141.5453044137+-2
2008-08-14 20:48142.2963313+-6
2008-08-16 01:50143.45832617+-3
2008-08-18 20:00146.1081213+-8
2008-08-18 21:30146.1682818+-6
2008-08-19 23:43147.2196149+-2
2008-08-20 14:15147.802249+-4
2008-08-20 23:00148.15351912+-3
2008-08-21 21:46149.066301+-1
2008-08-22 23:11150.087257+-3
2008-08-23 22:12151.01131013+-4

For each estimation interval: time is the middle of the interval, nINT is the number of observing periods and nPER is the number of Perseids involved. ZHR = (1 + sum nPER) / sum(Teff/C) where Teff is the effective observing time and C is the total correction for limiting magnitude, clouds and zenith correction. The solar longitudes refer to equinox J2000.0.

Maximum profile

ZHRmax = 131 based on 21353 Perseids in 2399 data intervals, assuming fixed population index r = 2.1 and zenith correction 1/sin(hR).

ZHR graph

Time (UT)SolarlonnINTnPERZHR
2008-08-10 21:04138.4683525225+-2
2008-08-10 22:00138.5052625136+-2
2008-08-10 22:36138.5293825329+-2
2008-08-10 23:10138.5522925628+-2
2008-08-10 23:35138.5694225726+-2
2008-08-11 00:04138.5882925827+-2
2008-08-11 00:31138.6062626134+-2
2008-08-11 00:55138.6222825630+-2
2008-08-11 01:16138.6361925438+-2
2008-08-11 01:40138.6512625630+-2
2008-08-11 02:14138.6752825643+-3
2008-08-11 07:44138.8942721434+-2
2008-08-11 21:07139.4294925842+-3
2008-08-11 21:54139.4614825050+-3
2008-08-11 22:15139.4748125240+-3
2008-08-11 22:36139.4885831046+-3
2008-08-11 22:51139.4995627245+-3
2008-08-11 23:07139.5095828948+-3
2008-08-11 23:21139.5196030851+-3
2008-08-11 23:37139.5295526351+-3
2008-08-11 23:52139.5396229141+-2
2008-08-12 00:07139.5495826249+-3
2008-08-12 00:20139.5584228745+-3
2008-08-12 00:38139.5702825851+-3
2008-08-12 00:55139.5813126151+-3
2008-08-12 01:11139.5922928972+-4
2008-08-12 01:27139.6023028268+-4
2008-08-12 01:42139.6132625262+-4
2008-08-12 01:55139.6212425173+-5
2008-08-12 02:17139.6363825270+-4
2008-08-12 02:55139.6614125966+-4
2008-08-12 03:59139.7046225161+-4
2008-08-12 05:35139.7683725186+-5
2008-08-12 07:02139.8263026168+-4
2008-08-12 08:06139.8692926070+-4
2008-08-12 08:51139.8983125577+-5
2008-08-12 10:01139.9452626376+-5
2008-08-12 13:39140.0912825167+-4
2008-08-12 21:39140.4103026145+-3
2008-08-12 22:32140.4463525076+-5
2008-08-12 23:01140.4652925060+-4
2008-08-12 23:16140.4753530688+-5
2008-08-12 23:33140.4864739066+-3
2008-08-12 23:47140.4965364078+-3
2008-08-13 00:03140.5065258183+-3
2008-08-13 00:17140.5155260980+-3
2008-08-13 00:33140.5264448770+-3
2008-08-13 00:47140.53659887106+-4
2008-08-13 01:02140.54664985107+-3
2008-08-13 01:18140.556571041117+-4
2008-08-13 01:33140.56652728120+-4
2008-08-13 01:47140.57560919105+-3
2008-08-13 02:02140.58648730131+-5
2008-08-13 02:16140.59529445111+-5
2008-08-13 02:39140.61031256110+-7
2008-08-13 03:26140.6412025185+-5
2008-08-13 06:43140.7732625064+-4
2008-08-13 11:19140.9572019841+-3
2008-08-13 23:10141.4313325031+-2
2008-08-14 00:38141.4892426035+-2
2008-08-14 01:31141.5251925738+-2
2008-08-14 02:20141.5581016039+-3

For each estimation interval: time is the middle of the interval, nINT is the number of observing periods and nPER is the number of Perseids involved. ZHR = (1 + sum nPER) / sum(Teff/C) where Teff is the effective observing time and C is the total correction for limiting magnitude, clouds and zenith correction. The solar longitudes refer to equinox J2000.0.

Observer statistics

Data has been received from 238 observers in 33 countries. Thank you for your efforts!

Spatial distribution

Spatial distribution

Temporal distribution

Temporal distribution

Table of observers

ObserverCountryTeffnPER
Tomasz Adam Poland 0.16h 1
Salvador Aguirre Mexico 28.80h 170
Reyhane Akhbari Iran 2.49h 13
Plamena Alexandrova Bulgaria 2.07h 98
Karl Antier France 0.92h 22
Rainer Arlt Germany 0.23h 21
Igor Arolovich Israel 1.50h 21
Amin Asadi Iran 2.49h 9
Jure Atanackov Slovenia 1.22h 140
Gary Auker United Kingdom 0.55h 21
Pierre Bader Germany 18.45h 296
Ricardas Balciunas Lithuania 2.83h 35
Ana Bankovic Serbia 1.80h 23
Hadi Barghamadi Iran 4.60h 58
Tomasz Bartosik Poland 0.98h 16
Orlando Benitez Sanchez Spain 6.40h 191
Felix Bettonvil Netherlands 4.63h 359
Jean-marie Biets Belgium 11.97h 262
Jean-marie Biets Belgium 2.23h 8
Lukas Bolz Germany 2.67h 29
Emil Brezina Czech Republic 0.84h 42
Anna Brylyakova Ukraine 25.15h 179
Andreas Buchmann Switzerland 4.09h 85
Aleksandar Bulj Croatia 1.00h 17
Vasko Cacanoski Macedonia 2.69h 135
Rafael Campillos Ladero Spain 3.65h 74
Jose Carlos Millan Spain 2.33h 16
Igor Chalenko Ukraine 6.38h 74
Marcin Chwala Poland 51.70h 263
Andrew Cooper United States 0.83h 41
Orley Cruz Cuba 2.64h 29
Nadka Dankova Bulgaria 0.92h 8
Mitra Dashtaki Iran 2.49h 22
Mark Davis United States 10.40h 73
Bert De Brabandere Belgium 8.35h 102
Karel Dewaele Belgium 0.91h 51
Valentin Diaz Parreno Spain 1.41h 58
Sietse Dijkstra Netherlands 14.42h 303
Todor Dimitrov Bulgaria 3.83h 148
Irena Divisova Czech Republic 12.00h 97
Audrius Dubietis Lithuania 20.75h 242
Jaroslaw Dygos Poland 35.25h 229
Urszula Dzikowicz Poland 2.95h 22
Gadi Eidelheit Israel 1.55h 40
Shlomi Eini Israel 5.64h 251
Chad K. Ellington United States 1.27h 108
Chad K Ellington United States 0.92h 52
Frank Enzlein Germany 6.90h 109
Saied Fazeli Iran 2.49h 18
Mihai Florea Romania 2.62h 49
Antal Fodor Hungary 2.75h 207
Ariel Gershengold Israel 1.45h 30
Christoph Gerber Germany 2.50h 2
William Godley United States 6.75h 20
Svetlana Goncova Ukraine 3.99h 16
Mitja Govedic Slovenia 18.37h 758
Alexandru S. Grigore Romania 25.72h 617
Valentin Grigore Romania 14.58h 358
Laszlo Gyarmati Hungary 5.75h 355
Shy Halatzi Israel 10.05h 181
Wayne T. Hally United States 26.35h 282
Teemu Hankamaki Finland 1.50h 28
Therese Hansson Sweden 1.50h 28
Yegene Harirchi Iran 2.49h 15
Roberto Haver Italy 1.73h 123
Roberto Haver Italy 2.53h 65
Roberto Haver Italy 2.00h 22
Maryam Hazratiniya Iran 2.49h 25
Vilem Heblik Czech Republic 51.79h 276
Netanel Hershkovitz Israel 0.94h 4
Veerle Herrygers Belgium 1.88h 29
Grigory Hmel Ukraine 2.68h 16
Ken Hodonsky United States 6.03h 86
Sorin Hotea Romania 9.57h 413
Michiel Hubeau Belgium 9.38h 292
Andrey Igoshev Russia 5.00h 21
Frosina Ilievska Macedonia 2.46h 110
Lars Jacobs Belgium 14.54h 212
Khatere Jalili Iran 2.49h 23
Carl Johannink Netherlands 35.40h 402
Javor Kac Slovenia 25.11h 708
Manos Kardasis Greece 1.53h 65
Roy Keeris Netherlands 2.83h 96
Jakub Koukal Czech Republic 98.88h 1184
Sergey Krasilnikov Ukraine 15.18h 298
Sergey Krasilnikov Ukraine 5.67h 277
Sergey Krasilnikov Ukraine 4.48h 91
Gyongyver Kudor Hungary 3.00h 52
Patrycja Kurowska Poland 2.95h 13
Michal Kusiak Poland 0.33h 22
Maciej Kwinta Poland 8.00h 96
Andrey Kychyzhyyev Ukraine 6.67h 55
Martin Labudik Slovakia 1.50h 2
Adrian Lelyen Cuba 2.74h 24
Greet Lembregts Belgium 7.08h 28
Jan Lembregts Belgium 2.29h 14
Peter Van Leuteren Netherlands 38.66h 380
Anna S. Levina Israel 17.75h 505
Vecheslav Levchik Belarus 1.49h 17
Alister Ling Canada 0.91h 48
Mike Linnolt United States 1.00h 59
David Lukacs Hungary 2.75h 232
Jose Luis Maestre Garcia Spain 3.29h 177
Mehran Mahmodi Iran 2.49h 13
Olga Malinina Ukraine 16.21h 71
Justyna Mamzer Poland 2.95h 24
Grigoris Maravelias Greece 4.33h 124
Ivana Marjanovic Serbia 10.10h 60
Milos Maric Serbia 8.11h 44
Monika Martiniskova Slovakia 2.40h 3
Pierre Martin Canada 19.60h 371
Antonio Martinez Venezuela 6.56h 255
Mikhail Maslov Russia 0.90h 10
Bruce Mccurdy Canada 17.50h 299
Frederic Merlin France 3.09h 171
Alexandra Mikuskova Slovakia 1.87h 4
Jose Carlos Millan Spain 2.97h 104
Koen Miskotte Netherlands 36.13h 471
Mandana Moghiman Iran 2.49h 184
Faeze Mohammadi Iran 2.49h 19
Sirko Molau Germany 3.63h 57
Sabine Wachter Germany 4.57h 34
Umberto Mule Stagno Malta 0.25h 17
Arash Nabizadeh Iran 1.48h 81
Mohammad Nilforoushan Iran 2.97h 160
Markku Nissinen Finland 1.02h 3
Tereza Novotna Czech Republic 1.50h 30
Ingo Ortmann Germany 2.87h 4
Jaroslav Pastorek Slovakia 2.50h 3
Anna Pavlova Ukraine 15.56h 116
Dusan Pavlovic Serbia 1.00h 0
Dusan Pavlovic Serbia 1.33h 33
Dusan Pavlovic Serbia 1.25h 2
Lovro Pavletic Croatia 1.58h 44
Mattias Persson Sweden 2.34h 55
Ivica Pesun Croatia 1.50h 31
Carles Pineda Ferre Spain 4.99h 147
Rostislav Pleshivtsev Spain 4.04h 65
Krzysztof Polakowski Poland 26.49h 180
Robert Pomohaci Romania 7.53h 140
Szaniszlo Prohaszka Hungary 3.00h 38
Jurgen Rendtel Germany 69.40h 662
Anna Rieth Hungary 5.75h 153
Adrian Ritterman Croatia 3.13h 35
Adrian Ritterman Croatia 2.58h 56
Adrian Ritterman Croatia 5.75h 118
Mileny Roche Lamas Cuba 3.00h 17
Denis Samsonov Ukraine 7.07h 98
Krisztian Sarneczky Hungary 3.00h 66
Branislav Savic Serbia 34.91h 698
Teodora Savic Popovic Serbia 2.66h 85
Teodora Savic Popovic Serbia 0.25h 4
Teodora Savic Popovic Serbia 2.88h 37
Teodora Savic Popovic Serbia 2.89h 235
Teodora Savic Popovic Serbia 11.84h 105
Teodora Savic Popovic Serbia 1.00h 0
Teodora Savic Popovic Serbia 1.00h 28
Vasiliy Sedov Ukraine 27.99h 303
Vasiliy Sedov Ukraine 3.41h 60
Kristine Shults Ukraine 26.73h 289
Marcin Sienko Poland 2.00h 2
Magdalena Sieniawska Poland 22.25h 153
Andrea Sipka Serbia 1.17h 28
Andrea Sipka Serbia 0.42h 2
Andrea Sipka Serbia 3.01h 44
Andrea Sipka Serbia 1.75h 13
Andrea Sipka Serbia 4.72h 224
Andrea Sipka Serbia 1.34h 17
Andrea Sipka Serbia 4.04h 47
Andrea Sipka Serbia 2.82h 32
Dariusz Sitek Poland 1.97h 26
Tadeusz Sobczak Poland 28.75h 252
Igor Sovtus Ukraine 11.71h 31
Florin-alexandru Stancu Romania 12.38h 249
Katarina Stankovic Serbia 2.48h 68
Katarina Stankovic Serbia 0.50h 3
Katarina Stankovic Serbia 2.94h 289
Katarina Stankovic Serbia 3.42h 58
Katarina Stankovic Serbia 4.74h 195
Mark Stafford United States 3.91h 22
Zivka Stankovic Serbia 2.57h 57
Zivka Stankovic Serbia 0.25h 4
Zivka Stankovic Serbia 3.33h 37
Zivka Stankovic Serbia 13.94h 67
Zivka Stankovic Serbia 1.98h 16
Zivka Stankovic Serbia 2.89h 102
Anton Stipec Croatia 3.00h 82
Dana Stoica Romania 5.20h 195
Martin Stojanovski Macedonia 3.43h 223
Wesley Stone United States 6.06h 336
Oana Suciu Romania 7.68h 154
Pavel Svozil Czech Republic 0.94h 45
Agoston Szauer Hungary 2.75h 132
Richard Taibi United States 8.12h 108
Darren Talbot Canada 10.77h 177
Csilla Tepliczky Hungary 5.75h 266
Istvan Tepliczky Hungary 3.00h 25
Cristina Tinta Romania 2.26h 83
Marko Toivonen Finland 2.15h 38
Rudolf Tomori Slovakia 7.26h 121
Rafael Ruben Torregrosa Soler Spain 2.63h 25
Blanca Troughton Luque Spain 3.70h 93
Pawel Trybus Poland 1.00h 63
Arnold Tukkers Slovenia 3.50h 260
Shigeo Uchiyama Japan 3.75h 45
Simona Vaduvescu Romania 2.00h 14
Hendrik Vandenbruaene Belgium 4.52h 113
Michel Vandeputte Belgium 24.75h 97
Michel Vandeputte Belgium 5.25h 191
Michel Vandeputte Belgium 0.50h 39
Michel Vandeputte Belgium 1.75h 276
Michel Vandeputte Belgium 5.25h 164
Michel Vandeputte Belgium 3.00h 26
Michel Vandeputte Belgium 2.50h 32
Michel Vandeputte Belgium 1.63h 24
Michel Vandeputte Belgium 1.58h 2
Michel Vandeputte Belgium 4.83h 23
Michel Vandeputte Belgium 6.00h 26
Valentin Velkov Bulgaria 2.34h 143
Vilena Velikic Serbia 16.18h 124
Ivo Vespalec Czech Republic 2.26h 4
Ivo Vespalec Czech Republic 5.60h 12
Myriam Vingerhoets Belgium 14.92h 230
Rok Vogrin?i? Slovenia 4.00h 38
Maria Vorobjova Ukraine 16.98h 121
Maria Vorobjova Ukraine 5.25h 104
Andreas Waets Belgium 11.63h 374
Helena Walter Hungary 2.75h 227
William Watson United States 0.99h 52
William Watson United States 1.77h 51
William Watson United States 15.23h 149
William Watson United States 1.16h 52
Thomas Weiland Austria 50.86h 604
Mariusz Wisniewski Poland 9.32h 148
Laura Wittemans France 2.55h 30
Laura Wittemans Belgium 1.33h 20
Lukasz Wozniak Poland 23.46h 437
Ilkka Yrjola Finland 0.95h 18

Data access

Create your own analysis!
Rate intervals:
per2008_rate.csv (CSV-format).
Magnitude distributions: per2008_magn.csv (CSV-format).